Wind_Speed
25 23 22 21 20 18 17 16 15 14 13 12 11 10 9 9 7 7 7 6 6 6 6 7 6 6 6 6 5 5 5 4 4 4 4 5 5 5 5 5 6 6 6
28 27 26 24 23 21 20 20 18 17 16 15 14 13 12 11 10 9 9 8 8 8 8 8 8 8 8 8 7 7 7 7 6 6 6 6 6 7 7 7 8 8 8
31 31 29 28 26 25 23 23 21 20 19 17 16 15 14 14 13 12 12 11 10 10 9 9 9 9 9 9 9 9 9 9 9 8 9 9 9 9 9 10 10 10 10
32 31 31 30 30 28 27 25 24 22 22 20 18 18 17 16 16 15 14 14 13 13 12 11 11 11 11 11 11 11 11 11 11 11 11 11 11 12 12 12 12 12 13
33 32 32 33 33 31 29 28 27 25 23 22 21 20 19 19 18 18 17 16 16 15 15 14 14 14 14 14 14 14 13 13 13 13 13 13 13 14 14 14 15 15 15
37 34 32 34 34 33 32 31 30 29 26 24 23 22 21 21 21 21 20 19 18 18 17 18 17 17 16 16 16 16 16 16 16 16 16 16 17 17 17 17 17 17 18
39 38 35 34 34 33 33 33 32 30 29 28 26 24 23 23 23 23 23 22 21 20 20 20 19 19 19 19 19 19 19 18 18 18 19 19 19 20 20 19 19 19 20
39 38 37 34 34 34 32 32 32 32 31 30 28 26 26 25 25 25 24 24 24 23 23 23 22 22 22 21 21 21 21 21 21 21 21 22 22 22 22 22 22 22 22
40 38 36 35 34 32 31 30 30 30 31 31 29 28 28 27 27 26 25 25 26 26 25 25 24 24 24 24 24 24 23 23 23 24 24 24 24 24 24 24 25 25 25
40 40 37 35 34 34 32 30 29 29 30 31 29 29 29 29 28 26 26 26 26 26 27 27 26 26 25 25 26 26 26 26 26 26 26 26 26 26 26 27 27 27 27
37 37 36 35 34 34 33 31 30 29 30 29 29 29 28 28 28 28 28 27 27 28 29 29 28 28 27 26 27 28 28 28 28 28 28 28 28 28 28 28 28 28 28
34 33 32 33 32 32 32 31 29 29 29 29 29 30 29 28 28 29 28 28 28 28 28 28 29 29 29 28 28 28 29 30 30 30 30 30 30 30 30 30 30 30 30
31 31 31 31 31 31 31 31 30 30 30 30 29 29 30 30 31 31 31 31 30 30 29 29 29 30 30 29 29 29 30 31 31 31 32 32 32 32 32 32 32 31 31
28 28 28 29 30 30 30 31 32 30 29 29 30 30 31 32 32 33 32 32 31 32 31 30 30 31 31 31 30 31 31 33 33 33 33 32 32 32 33 33 33 32 32
23 25 27 28 29 30 31 31 30 30 30 30 31 32 32 31 32 32 33 33 33 33 33 33 32 32 33 33 33 33 33 34 34 33 33 33 33 32 33 34 34 34 34
19 21 24 26 27 29 30 31 30 30 30 30 32 33 32 32 32 33 33 34 34 34 34 34 34 33 33 34 34 34 33 33 33 33 33 33 34 33 33 34 35 35 35
12 15 19 22 24 25 27 28 29 30 30 31 32 32 32 31 32 33 33 33 34 34 35 35 34 33 33 33 33 34 34 34 34 33 33 33 33 34 35 35 35 35 35
9 11 14 17 21 24 25 27 28 29 29 29 29 30 30 31 32 32 32 32 32 32 33 34 34 33 32 31 31 32 33 33 32 32 32 32 33 33 34 33 34 34 34
6 8 10 12 15 18 22 25 26 27 27 27 27 28 29 30 30 30 30 30 30 30 30 31 30 31 31 31 29 29 29 29 30 30 30 31 31 32 32 31 31 30 29
7 6 7 8 11 13 16 18 21 23 24 26 26 27 27 28 29 28 28 28 29 29 28 28 28 29 29 29 28 28 27 27 27 27 28 29 29 28 27 27 27 27 27
9 7 7 7 8 10 12 14 16 18 20 22 23 25 25 26 26 27 27 27 27 28 27 26 25 24 24 25 25 24 24 23 23 22 23 22 22 22 22 23 24 24 24
11 9 8 8 8 9 10 11 13 15 16 18 20 21 22 23 24 24 24 25 24 24 25 25 24 23 21 21 21 21 21 21 21 19 19 18 18 18 18 19 19 19 20
14 12 11 10 9 8 8 9 11 13 14 15 16 18 19 20 21 21 20 20 20 20 21 21 21 21 21 19 19 19 19 19 18 17 16 16 16 16 16 16 16 17 17
16 14 13 11 10 9 7 7 8 10 11 12 14 14 16 16 16 17 17 16 17 17 17 18 19 19 19 18 17 16 16 15 14 13 14 14 13 13 13 13 14 15 16
18 16 15 13 11 10 8 7 6 6 8 9 10 10 10 11 12 12 13 14 14 14 14 14 14 14 14 15 15 14 13 12 12 12 12 12 11 11 11 12 13 13 14
19 18 17 15 13 11 9 7 7 5 4 3 4 5 6 7 7 9 10 11 11 12 12 12 12 12 12 11 11 10 10 9 9 10 10 9 9 9 10 10 11 11 12
Wind_Direction
252 251 251 252 252 253 254 255 256 253 251 248 247 247 243 238 233 232 234 230 230 233 235 236 238 239 239 242 245 244 244 244 243 240 240 240 244 245 247 250 250 250 253
254 252 253 252 251 251 251 252 253 252 250 249 247 246 246 243 239 238 241 237 235 237 240 240 241 243 243 244 246 247 250 252 253 252 255 259 260 260 261 263 263 261 261
254 253 251 249 249 250 250 250 250 250 250 249 248 245 245 245 242 239 242 241 239 239 242 244 245 247 249 249 249 250 253 256 257 258 260 263 265 269 270 269 270 269 269
258 258 253 250 249 249 251 250 248 250 250 248 247 245 244 244 244 242 243 245 244 243 243 246 248 250 252 254 254 254 256 260 263 265 265 267 268 272 273 273 273 274 273
265 262 257 253 251 250 250 250 246 247 248 248 248 246 243 243 244 245 246 246 246 247 246 247 249 251 254 256 258 258 259 262 264 268 269 270 271 274 275 276 276 276 275
266 265 262 258 256 254 251 249 246 245 246 247 248 248 245 244 245 246 247 247 246 247 249 249 250 252 254 256 259 261 263 265 267 269 271 273 274 275 276 278 279 279 278
266 265 264 263 260 258 256 252 247 245 245 247 248 247 245 244 245 247 248 248 248 248 249 251 252 253 255 256 258 260 263 266 268 271 273 275 276 277 277 279 280 281 280
263 263 264 264 262 260 259 257 251 246 246 246 245 245 243 244 245 246 247 248 249 250 249 250 252 254 256 257 258 260 263 265 268 271 273 275 276 277 278 279 280 281 282
261 262 262 263 260 258 257 256 252 248 246 245 243 243 243 243 243 244 247 249 250 250 250 250 250 252 254 258 259 260 262 265 266 269 271 274 276 277 277 278 280 280 281
259 259 260 261 259 256 255 252 251 250 249 247 244 243 244 244 242 243 245 248 250 251 250 252 252 252 253 255 258 260 262 264 265 268 270 273 275 275 276 277 279 280 281
256 256 257 258 258 256 254 251 249 249 248 247 248 246 244 242 240 242 244 246 249 251 252 253 254 254 253 253 254 257 261 263 264 266 269 271 272 273 274 275 277 278 280
253 252 252 252 252 251 251 247 247 247 249 246 247 247 246 244 242 241 243 246 247 250 252 253 255 256 255 254 253 255 258 261 264 265 267 268 269 271 273 273 275 277 278
248 247 247 246 246 246 245 245 246 245 246 246 245 246 245 245 245 245 245 246 246 248 250 250 252 255 256 256 254 255 258 260 263 264 266 267 268 269 270 272 274 276 277
243 243 243 243 243 244 245 246 244 243 244 245 243 244 245 246 245 248 248 247 248 249 250 252 252 253 255 257 256 257 259 260 262 263 265 266 267 267 268 271 273 274 276
239 239 240 241 242 242 242 241 242 241 241 243 243 242 244 244 244 247 249 249 250 250 251 253 254 255 256 256 256 258 260 260 260 263 264 264 264 266 268 270 271 273 274
240 239 239 240 241 240 241 242 243 241 242 244 243 243 244 246 248 248 250 251 252 253 254 254 255 258 258 258 258 258 259 260 261 262 262 262 264 265 268 270 271 272 273
249 247 244 241 241 241 242 243 243 242 244 246 246 246 248 249 250 250 252 253 254 255 256 256 258 259 260 259 259 259 261 261 262 262 262 263 263 265 266 268 270 271 271
267 261 256 250 246 243 243 244 245 244 246 246 247 247 249 251 252 252 253 254 255 257 258 258 258 259 260 260 262 263 262 261 261 261 262 262 262 262 265 267 268 270 271
299 280 271 263 256 251 249 247 246 248 248 249 249 248 249 251 252 253 253 253 255 256 258 258 259 260 260 260 262 263 262 260 260 261 262 261 262 264 265 268 269 269 271
339 318 294 279 269 261 255 253 250 250 251 251 252 251 251 252 253 254 254 254 255 255 256 257 260 260 259 258 257 258 258 260 260 261 262 262 262 263 264 265 266 268 270
3 347 328 308 289 277 266 260 258 256 254 252 252 253 253 252 252 253 253 254 253 253 255 254 256 256 256 254 252 253 255 255 257 261 262 263 263 262 264 266 270 271 271
8 357 343 327 310 297 282 270 263 260 259 256 254 253 254 253 252 253 253 252 253 253 251 251 252 253 251 249 247 248 251 252 253 254 255 256 259 262 264 266 268 270 272
12 5 357 347 335 318 301 284 273 267 262 261 257 254 254 253 251 251 250 249 249 248 247 247 249 247 246 247 247 248 248 247 249 250 250 256 261 264 264 265 269 273 275
14 11 4 357 350 340 327 307 290 276 267 264 259 256 252 251 248 244 243 244 243 242 240 239 240 241 243 243 242 242 242 242 243 247 251 256 259 262 267 269 274 279 280
17 14 11 7 1 354 347 336 323 301 280 267 256 249 245 246 241 236 236 238 238 236 235 234 233 233 233 233 236 236 235 237 244 247 253 257 259 262 268 272 278 282 283
20 19 18 17 15 11 6 359 353 341 317 288 256 239 229 223 217 215 218 220 222 221 221 221 223 224 219 217 221 226 229 234 241 246 248 254 261 267 273 279 282 285 288
Height
5894 5895 5896 5898 5898 5899 5900 5900 5901 5902 5902 5903 5904 5904 5905 5906 5907 5907 5908 5908 5909 5910 5911 5912 5912 5913 5914 5915 5916 5916 5917 5918 5918 5919 5920 5920 5921 5922 5922 5923 5924 5924 5925
5888 5889 5891 5892 5894 5895 5896 5896 5897 5898 5899 5900 5901 5902 5903 5904 5905 5906 5906 5907 5908 5908 5909 5910 5911 5912 5913 5914 5915 5915 5916 5917 5917 5918 5919 5919 5920 5920 5921 5922 5922 5923 5923
5880 5882 5884 5886 5888 5889 5891 5892 5893 5894 5895 5897 5898 5898 5900 5901 5902 5904 5904 5905 5906 5907 5907 5908 5910 5911 5912 5912 5913 5914 5915 5916 5916 5917 5917 5918 5918 5919 5920 5920 5921 5921 5921
5873 5875 5877 5879 5881 5883 5885 5887 5889 5890 5891 5892 5894 5895 5896 5897 5899 5900 5901 5902 5903 5904 5905 5906 5908 5909 5910 5911 5912 5912 5913 5914 5915 5915 5916 5916 5917 5917 5918 5918 5918 5919 5919
5865 5868 5870 5872 5874 5877 5879 5881 5883 5885 5886 5888 5889 5891 5892 5893 5895 5896 5898 5899 5901 5901 5903 5904 5905 5906 5907 5908 5909 5910 5911 5912 5913 5913 5914 5914 5915 5915 5915 5916 5916 5916 5916
5858 5861 5863 5865 5866 5869 5872 5874 5876 5879 5881 5882 5884 5886 5887 5889 5890 5892 5893 5895 5897 5898 5899 5900 5902 5903 5904 5905 5906 5908 5908 5909 5910 5911 5911 5912 5912 5912 5912 5913 5913 5913 5913
5850 5853 5855 5857 5859 5861 5864 5866 5869 5872 5874 5876 5879 5880 5882 5884 5885 5887 5888 5890 5892 5894 5895 5896 5898 5899 5901 5902 5903 5904 5905 5906 5907 5908 5908 5909 5909 5909 5909 5909 5909 5909 5909
5841 5844 5847 5849 5851 5853 5856 5858 5861 5864 5867 5869 5872 5874 5876 5878 5880 5881 5883 5885 5887 5889 5890 5892 5894 5895 5896 5898 5899 5900 5901 5902 5903 5904 5905 5905 5905 5906 5906 5906 5906 5906 5906
5832 5835 5838 5841 5844 5846 5848 5851 5853 5856 5859 5862 5865 5867 5869 5871 5873 5876 5878 5879 5881 5883 5885 5886 5888 5890 5892 5893 5894 5895 5897 5898 5898 5899 5900 5901 5901 5901 5901 5902 5901 5901 5901
5822 5826 5829 5832 5835 5838 5841 5843 5846 5849 5852 5854 5857 5859 5862 5864 5867 5870 5872 5874 5875 5877 5879 5880 5882 5884 5886 5888 5889 5891 5892 5892 5893 5894 5894 5895 5896 5896 5896 5897 5897 5897 5896
5812 5815 5819 5823 5826 5829 5832 5835 5838 5841 5844 5847 5849 5852 5854 5857 5859 5862 5865 5867 5869 5871 5873 5874 5876 5878 5879 5882 5884 5885 5885 5886 5887 5888 5889 5889 5890 5891 5891 5891 5891 5891 5891
5802 5806 5810 5813 5817 5820 5823 5827 5829 5833 5836 5839 5841 5844 5847 5849 5852 5854 5857 5859 5862 5864 5866 5868 5869 5871 5872 5875 5877 5878 5879 5879 5881 5882 5883 5883 5884 5884 5885 5885 5885 5885 5885
5793 5797 5801 5805 5808 5811 5814 5817 5821 5824 5828 5831 5833 5836 5839 5841 5844 5846 5849 5852 5854 5856 5859 5861 5862 5864 5865 5867 5870 5871 5872 5873 5874 5875 5876 5877 5877 5878 5878 5878 5879 5879 5879
5785 5789 5793 5796 5800 5802 5806 5809 5812 5815 5819 5822 5826 5828 5831 5833 5836 5838 5841 5843 5846 5849 5851 5853 5854 5856 5858 5860 5862 5863 5864 5865 5866 5868 5868 5869 5870 5871 5871 5871 5872 5872 5872
5778 5781 5785 5788 5791 5794 5797 5801 5803 5807 5811 5814 5817 5820 5822 5825 5827 5830 5833 5835 5838 5840 5843 5844 5846 5848 5849 5851 5853 5855 5856 5857 5858 5860 5861 5861 5862 5863 5864 5864 5864 5865 5865
5773 5775 5778 5781 5784 5786 5789 5793 5796 5800 5803 5806 5809 5812 5814 5817 5819 5821 5824 5827 5829 5832 5834 5836 5838 5839 5841 5843 5845 5846 5848 5849 5850 5852 5853 5854 5854 5855 5856 5856 5857 5857 5857
5769 5771 5773 5775 5777 5780 5783 5786 5790 5792 5795 5798 5801 5803 5806 5808 5811 5813 5815 5818 5820 5822 5825 5827 5829 5831 5833 5834 5836 5838 5839 5841 5842 5843 5844 5845 5846 5847 5848 5848 5848 5849 5849
5767 5768 5769 5770 5772 5774 5777 5780 5783 5785 5788 5790 5793 5795 5798 5800 5802 5805 5807 5809 5811 5813 5815 5817 5820 5822 5824 5826 5827 5829 5831 5832 5833 5835 5836 5837 5838 5838 5839 5840 5840 5841 5841
5765 5766 5766 5767 5768 5769 5771 5773 5776 5778 5780 5782 5784 5787 5790 5792 5794 5796 5798 5800 5803 5805 5807 5809 5811 5813 5815 5817 5819 5821 5822 5824 5825 5826 5827 5828 5829 5830 5831 5832 5832 5833 5833
5765 5764 5764 5764 5764 5765 5766 5768 5769 5771 5773 5775 5777 5779 5781 5784 5786 5788 5790 5792 5794 5797 5799 5801 5803 5805 5807 5809 5812 5813 5815 5817 5818 5819 5820 5821 5822 5823 5824 5825 5825 5826 5826
5765 5763 5762 5762 5762 5762 5762 5763 5764 5765 5767 5768 5770 5772 5774 5776 5778 5780 5782 5785 5787 5789 5791 5794 5796 5798 5800 5802 5805 5806 5808 5810 5811 5812 5814 5814 5815 5817 5817 5818 5819 5819 5819
5765 5763 5761 5760 5759 5759 5759 5759 5760 5760 5761 5762 5764 5765 5767 5769 5771 5772 5775 5777 5780 5782 5785 5787 5790 5792 5794 5796 5798 5800 5802 5804 5805 5807 5808 5809 5810 5811 5812 5813 5813 5814 5814
5765 5763 5761 5759 5757 5756 5755 5755 5755 5755 5756 5757 5758 5759 5761 5762 5764 5766 5768 5771 5773 5776 5779 5782 5784 5786 5788 5790 5792 5794 5796 5798 5800 5801 5803 5804 5805 5806 5807 5807 5808 5808 5808
5766 5763 5760 5758 5756 5754 5753 5752 5751 5751 5752 5752 5753 5754 5756 5757 5759 5761 5764 5766 5769 5771 5774 5776 5779 5781 5783 5785 5787 5790 5792 5793 5795 5797 5799 5800 5801 5802 5802 5803 5803 5803 5803
5767 5763 5760 5757 5755 5753 5751 5750 5749 5748 5748 5748 5749 5750 5752 5753 5755 5757 5760 5762 5765 5767 5769 5771 5774 5776 5778 5781 5783 5786 5788 5790 5791 5793 5795 5796 5797 5798 5798 5799 5799 5799 5798
5768 5764 5760 5757 5754 5752 5750 5749 5747 5746 5746 5746 5746 5747 5749 5750 5752 5754 5757 5759 5761 5764 5766 5769 5771 5774 5776 5778 5780 5783 5785 5787 5788 5790 5791 5793 5794 5794 5795 5795 5795 5794 5794